SKYSAT-C11 (42987 NORAD) Tracking and Keplerian Element Data

This shows tracking and keplerian element data for the satellite.

Feedback or suggestion? Click here.




ElementValue
Catalog42987
NameSKYSAT-C11
Epoch Orbit5823
Epoch Day323.19922992
Epoch Year2018
RAAN74.7372
Inclination97.4171
Eccentricity0.0008593
Argument of Perigee238.4045
Mean Anonmoly121.6353
Mean Motion15.214909
Decay Rate5.9E-06
L11 42987U 17068A 18323.19922992 .00000590 00000-0 29312-4 0 9997
L22 42987 97.4171 74.7372 0008593 238.4045 121.6353 15.21490900 58232

Live tracking and technical data element details for SKYSAT-C11 (NORAD 42987). SKYSAT-C11 can be tracked NOW for your location showing map with azimuth and elevation plus other details from your city location.

Track the satellite on the map from your city or location and see movement details for azimuth, elevation, latitude, longitude, range, height, and movement on the map or in text.







IsCatalogInMostPopularTable: catalog: 42987, numindb: 132
Update: records affected: 1



GetName: 42987 SKYSAT-C11

Hit Count: updated at: Mon, 19 Nov 2018 14:22:08 GMT